Location: South Tamworth Observatory
(43.8246°N, 71.3026°W)
Time: 12:01:46
(UTC-04:00)

Amateur Radio Satellites - All Passes

Search period start: 31 August 2016 11:31
Search period end: 01 September 2016 11:31
Location: South Tamworth Observatory, 43.8246°N, 71.3026°W

Satellite Date Start Highest point End Downlink Frequencies (MHz)
Time Altitude Azimuth
AUBIESAT-1 31 Aug 11:32:58 11:35:55 20° 98° (E) 11:38:41 437.475
PCSat 31 Aug 11:33:01 11:38:26 82° 302° (WNW) 11:43:54 145.827
Cosmos 2499 31 Aug 11:33:48 11:41:26 50° 91° (E) 11:48:32 435.465 / 435.565
POPSAT HIP 1 31 Aug 11:39:44 11:44:00 72° 258° (WSW) 11:48:17 437.405
M-CUBED/EXP-1 PRIME 31 Aug 11:41:50 11:45:27 32° 101° (E) 11:48:48 437.505
UKube-1 31 Aug 11:54:10 11:55:47 12° 90° (E) 11:57:24 .
O/OREOS (USA 219) 31 Aug 11:58:39 11:58:53 10° 96° (E) 11:59:07 437.305
DUCHIFAT 1 31 Aug 12:02:46 12:06:50 44° 261° (W) 12:10:55 145.980
HUMSAT D 31 Aug 12:04:26 12:07:40 23° 293° (WNW) 12:10:55 437.325/437.525
AO-85 31 Aug 12:04:54 12:08:17 21° 40° (NE) 12:11:28 145.980
AISAT 31 Aug 12:05:38 12:09:41 32° 97° (E) 12:13:40 437.250
JAS-2 31 Aug 12:10:24 12:15:39 83° 256° (WSW) 12:21:24 435.910
DANDE 31 Aug 12:11:24 12:16:00 23° 270° (W) 12:21:26 436.750
QB50P2 31 Aug 12:11:54 12:15:39 30° 264° (W) 12:19:26 145.880/145.840
ESTCUBE 1 31 Aug 12:14:05 12:18:39 73° 103° (ESE) 12:23:11 437.505/2401.250
POLYITAN 1 31 Aug 12:14:24 12:18:10 29° 264° (W) 12:21:55 437.675
50 SAT 31 Aug 12:18:12 12:21:40 41° 99° (E) 12:25:08 437.505
ISS 31 Aug 12:18:45 12:21:45 31° 19° (NNE) 12:24:44 145.825
NANOSAT C BR1 31 Aug 12:19:10 12:22:51 28° 264° (W) 12:26:32 145.865
AIST 2 31 Aug 12:35:14 12:38:59 33° 313° (NW) 12:42:46 435.215
BUGSAT 1 31 Aug 12:40:54 12:44:53 39° 262° (W) 12:48:53 437.445
SPROUT 31 Aug 12:41:49 12:45:50 39° 98° (E) 12:49:49 437.525
CUBEBUG 1 31 Aug 12:43:27 12:47:55 84° 284° (WNW) 12:52:19 437.445
Oscar 19 31 Aug 12:47:08 12:52:03 46° 70° (ENE) 12:57:01 437.125/150
Gurwin Techsat 1B 31 Aug 12:52:09 12:56:28 26° 64° (ENE) 13:00:48 435.225
VELOX 1 31 Aug 12:52:15 12:56:44 85° 288° (WNW) 13:01:11 145.980
DX 1 31 Aug 12:55:26 12:59:50 70° 103° (ESE) 13:04:11 434.975-435.025
AO-7 31 Aug 13:00:19 13:04:36 15° 42° (NE) 13:08:51 29.400- 29.500
AUBIESAT-1 31 Aug 13:06:55 13:10:29 32° 297° (WNW) 13:13:48 437.475
M-CUBED/EXP-1 PRIME 31 Aug 13:16:38 13:19:48 22° 301° (WNW) 13:22:45 437.505
GONETS M04 31 Aug 13:17:32 13:25:28 37° 291° (WNW) 13:33:31
PCSat 31 Aug 13:19:09 13:22:42 17° 322° (NW) 13:26:16 145.827
RS-15 31 Aug 13:19:40 13:20:28 10° 270° (W) 13:21:15 29.354- 29.394
Cosmos 2499 31 Aug 13:27:39 13:34:43 34° 289° (WNW) 13:41:24 435.465 / 435.565
UKube-1 31 Aug 13:27:57 13:32:17 67° 286° (WNW) 13:36:34 .
O/OREOS (USA 219) 31 Aug 13:33:02 13:37:31 82° 291° (WNW) 13:42:05 437.305
AISAT 31 Aug 13:42:19 13:46:01 26° 294° (WNW) 13:49:41 437.250
AO-85 31 Aug 13:44:55 13:49:02 50° 241° (WSW) 13:52:53 145.980
ESTCUBE 1 31 Aug 13:52:39 13:54:53 14° 299° (WNW) 13:57:05 437.505/2401.250
50 SAT 31 Aug 13:52:49 13:54:55 15° 295° (WNW) 13:56:59 437.505
ISS 31 Aug 13:55:08 13:58:20 52° 218° (SW) 14:01:33 145.825
ITAMSAT 1 31 Aug 14:10:37 14:15:25 40° 68° (ENE) 14:20:13 435.822/435.867
SWISSCUBE 31 Aug 14:17:26 14:21:01 21° 93° (E) 14:24:35 437.505
SPROUT 31 Aug 14:18:22 14:21:31 20° 295° (WNW) 14:24:40 437.525
TISAT 1 31 Aug 14:21:09 14:25:22 79° 284° (WNW) 14:29:31 437.305
Oscar 19 31 Aug 14:27:30 14:31:36 23° 267° (W) 14:35:43 437.125/150
Gurwin Techsat 1B 31 Aug 14:31:05 14:36:09 45° 261° (W) 14:41:16 435.225
VELOX 1 31 Aug 14:31:59 14:32:27 10° 302° (WNW) 14:32:54 145.980
DX 1 31 Aug 14:33:22 14:35:26 13° 300° (WNW) 14:37:31 434.975-435.025
BEESAT 31 Aug 14:33:44 14:37:47 27° 95° (E) 14:41:48 436.000
AO-7 31 Aug 14:47:32 14:55:39 58° 64° (ENE) 15:03:45 29.400- 29.500
O/OREOS (USA 219) 31 Aug 15:16:08 15:17:43 12° 313° (NW) 15:19:18 437.305
YUBILEINY 31 Aug 15:17:12 15:22:47 18° 58° (ENE) 15:28:19 435.215
ITUPSAT 1 31 Aug 15:23:32 15:28:21 82° 103° (ESE) 15:33:08 437.325
HORYU 2 31 Aug 15:33:41 15:35:45 13° 60° (ENE) 15:37:49 437.375
MOZHAYETS 4 31 Aug 15:46:48 15:50:30 24° 94° (E) 15:54:12
ITAMSAT 1 31 Aug 15:50:36 15:54:58 27° 265° (W) 15:59:22 435.822/435.867
SWISSCUBE 31 Aug 15:54:28 15:59:01 45° 290° (WNW) 16:03:33 437.505
BRITE-PL 31 Aug 16:00:11 16:02:23 13° 56° (NE) 16:04:38 437.365/2234.400
BEESAT 31 Aug 16:11:17 16:15:36 35° 292° (WNW) 16:19:53 436.000
BEESAT 2 31 Aug 16:28:38 16:31:07 16° 39° (NE) 16:33:37 435.950
BEESAT 3 31 Aug 16:37:21 16:40:50 28° 46° (NE) 16:44:19 437.485
Cosmos 2504 31 Aug 16:40:16 16:44:47 17° 61° (ENE) 16:49:16 435.465 / 435.565
AO-7 31 Aug 16:41:20 16:48:44 34° 263° (W) 16:56:11 29.400- 29.500
KKS-1 31 Aug 16:46:05 16:50:33 71° 102° (ESE) 16:54:59 437.445
GOMX 1 31 Aug 16:50:45 16:54:14 18° 60° (ENE) 16:57:47 467.674
LilacSat-2 31 Aug 16:51:56 16:52:57 11° 62° (ENE) 16:53:58 437.200
Cosmos 2491 31 Aug 16:57:42 17:05:09 33° 83° (E) 17:12:39 435.465 / 435.565
NOAA 18 31 Aug 16:59:24 17:03:28 21° 60° (ENE) 17:07:32 137.9125
ITUPSAT 1 31 Aug 17:03:18 17:05:31 13° 301° (WNW) 17:07:45 437.325
HORYU 2 31 Aug 17:07:17 17:11:43 73° 256° (WSW) 17:16:12 437.375
NOAA 15 31 Aug 17:08:57 17:13:35 32° 66° (ENE) 17:18:14 137.62
STARS 31 Aug 17:10:05 17:14:28 62° 102° (ESE) 17:18:47 437.465
Cubesat XI-IV 31 Aug 17:11:47 17:16:14 28° 64° (ENE) 17:20:40 437.490
YUBILEINY 31 Aug 17:12:22 17:21:12 79° 81° (E) 17:29:55 435.215
CUBESAT XI-V 31 Aug 17:18:16 17:22:21 28° 95° (E) 17:26:24 437.345
CUTE-I 31 Aug 17:21:52 17:26:36 33° 66° (ENE) 17:31:19 437.470
MOZHAYETS 4 31 Aug 17:23:33 17:27:46 37° 290° (WNW) 17:31:57
BRITE-PL 31 Aug 17:34:51 17:39:52 82° 75° (ENE) 17:45:19 437.365/2234.400
HO-68 31 Aug 18:04:10 18:09:10 21° 54° (NE) 18:14:11 435.675
BEESAT 2 31 Aug 18:05:24 18:09:26 74° 237° (WSW) 18:13:25 435.950
DOVE 4 31 Aug 18:11:13 18:16:10 42° 69° (ENE) 18:21:10 437.250
BEESAT 3 31 Aug 18:14:59 18:18:29 30° 244° (WSW) 18:21:57 437.485
CINEMA 3 31 Aug 18:22:02 18:25:11 17° 62° (ENE) 18:28:17 145.822/145.860
LilacSat-2 31 Aug 18:22:56 18:26:44 65° 259° (W) 18:30:32 437.200
KKS-1 31 Aug 18:24:22 18:26:33 14° 300° (WNW) 18:28:42 437.445
GOMX 1 31 Aug 18:26:26 18:31:38 72° 259° (WSW) 18:37:07 467.674
Cosmos 2504 31 Aug 18:32:01 18:39:16 88° 267° (W) 18:46:28 435.465 / 435.565
PCSat 31 Aug 18:36:59 18:41:04 21° 41° (NE) 18:45:06 145.827
NOAA 18 31 Aug 18:38:11 18:43:40 61° 258° (WSW) 18:49:09 137.9125
STARS 31 Aug 18:47:53 18:50:18 15° 299° (WNW) 18:52:42 437.465
STRAND 1 31 Aug 18:47:58 18:50:20 13° 89° (E) 18:52:42 437.568
NOAA 15 31 Aug 18:48:31 18:53:17 35° 263° (W) 18:58:06 137.62
Cubesat XI-IV 31 Aug 18:51:02 18:56:06 43° 262° (W) 19:01:10 437.490
Cosmos 2491 31 Aug 18:52:58 19:01:30 57° 284° (WNW) 19:10:10 435.465 / 435.565
CUBESAT XI-V 31 Aug 18:55:32 18:59:43 32° 292° (WNW) 19:03:54 437.345
SEEDS 31 Aug 18:57:50 19:00:27 16° 64° (ENE) 19:03:04 437.485
CUTE-I 31 Aug 19:01:46 19:06:35 34° 263° (W) 19:11:26 437.470
AIST 1 31 Aug 19:03:24 19:06:46 21° 71° (ENE) 19:10:05
YUBILEINY 31 Aug 19:10:39 19:16:57 23° 282° (WNW) 19:23:14 435.215
AAUSAT CUBESAT 2 31 Aug 19:16:30 19:18:43 14° 63° (ENE) 19:20:57 437.432
AIST 2 31 Aug 19:16:40 19:20:24 30° 46° (NE) 19:24:07 435.215
BRITE-PL 31 Aug 19:16:47 19:19:07 13° 275° (W) 19:21:31 437.365/2234.400
CANX-2 31 Aug 19:26:48 19:30:53 52° 73° (ENE) 19:34:59 2200.000
COMPASS 1 31 Aug 19:27:51 19:31:07 23° 67° (ENE) 19:34:25 437.405
CUTE 1.7 + AOD 2 31 Aug 19:32:00 19:36:05 52° 72° (ENE) 19:40:10 437.475
UWE-3 31 Aug 19:35:12 19:37:58 16° 64° (ENE) 19:40:43 435.000/436.395/437.385
ZACube-1 31 Aug 19:40:54 19:42:29 12° 61° (ENE) 19:44:05 437.345
CUBEBUG 2 31 Aug 19:45:38 19:49:39 30° 69° (ENE) 19:53:34 437.445
HO-68 31 Aug 19:48:47 19:56:00 88° 252° (WSW) 20:03:15 435.675
DOVE 4 31 Aug 19:49:33 19:53:57 27° 267° (W) 19:58:25 437.250
CINEMA 3 31 Aug 19:56:50 20:01:48 66° 259° (W) 20:06:43 145.822/145.860
DELFI C3 31 Aug 20:18:42 20:19:38 11° 61° (ENE) 20:20:33 145.870
PCSat 31 Aug 20:19:38 20:25:05 78° 242° (WSW) 20:30:29 145.827
STRAND 1 31 Aug 20:24:58 20:30:06 78° 286° (WNW) 20:35:13 437.568
Cosmos 2504 31 Aug 20:27:49 20:31:28 15° 283° (WNW) 20:35:07 435.465 / 435.565
SEEDS 31 Aug 20:31:46 20:35:47 47° 261° (W) 20:39:49 437.485
Oscar 11 31 Aug 20:36:23 20:40:26 41° 71° (ENE) 20:44:29 145.826/435.025
AIST 1 31 Aug 20:40:27 20:44:29 36° 269° (W) 20:48:29
AAUSAT CUBESAT 2 31 Aug 20:49:44 20:53:46 55° 260° (W) 20:57:49 437.432
FUNcube-1 31 Aug 20:49:49 20:54:06 54° 73° (ENE) 20:58:19 145.935
AIST 2 31 Aug 20:55:08 20:58:52 31° 244° (WSW) 21:02:34 435.215
Cosmos 2491 31 Aug 20:57:33 21:00:41 12° 309° (NW) 21:03:51 435.465 / 435.565
COMPASS 1 31 Aug 21:02:51 21:06:32 31° 264° (W) 21:10:14 437.405
CANX-2 31 Aug 21:04:48 21:07:04 14° 270° (W) 21:09:19 2200.000
UWE-3 31 Aug 21:09:35 21:14:02 56° 260° (W) 21:18:23 435.000/436.395/437.385
CUTE 1.7 + AOD 2 31 Aug 21:09:57 21:12:14 14° 270° (W) 21:14:32 437.475
ZACube-1 31 Aug 21:13:47 21:18:12 77° 258° (WSW) 21:22:32 437.345
HUMSAT D 31 Aug 21:21:10 21:24:38 26° 68° (ENE) 21:28:04 437.325/437.525
CUBEBUG 2 31 Aug 21:22:10 21:26:13 29° 264° (W) 21:30:10 437.445
Cosmos 2499 31 Aug 21:24:11 21:28:25 16° 61° (ENE) 21:32:40 435.465 / 435.565
PRISM 31 Aug 21:24:23 21:28:30 53° 101° (E) 21:32:35 437.425
GONETS M04 31 Aug 21:28:41 21:36:07 29° 65° (ENE) 21:43:28
HO-68 31 Aug 21:40:21 21:44:39 17° 272° (W) 21:48:59 435.675
DELFI C3 31 Aug 21:49:58 21:53:53 71° 258° (WSW) 21:57:51 145.870
UNISAT 6 31 Aug 22:01:29 22:03:56 15° 91° (E) 22:06:22 437.425
CUSAT 1 31 Aug 22:02:05 22:03:25 12° 81° (E) 22:04:51 437.405
O/OREOS (USA 219) 31 Aug 22:02:47 22:06:45 28° 57° (ENE) 22:10:43 437.305
PCSat 31 Aug 22:06:26 22:07:32 11° 259° (W) 22:08:37 145.827
STRAND 1 31 Aug 22:06:47 22:08:26 11° 304° (NW) 22:10:04 437.568
CUBEBUG 1 31 Aug 22:07:50 22:09:04 11° 59° (ENE) 22:10:19 437.445
Oscar 11 31 Aug 22:13:44 22:16:45 18° 268° (W) 22:19:46 145.826/435.025
VELOX 1 31 Aug 22:17:29 22:19:06 12° 59° (ENE) 22:20:42 145.980
AUBIESAT-1 31 Aug 22:18:36 22:22:53 39° 65° (ENE) 22:27:08 437.475
SO-50 31 Aug 22:20:38 22:25:10 40° 117° (ESE) 22:29:40 436.795
M-CUBED/EXP-1 PRIME 31 Aug 22:27:58 22:32:35 58° 68° (ENE) 22:37:10 437.505
FUNcube-1 31 Aug 22:28:13 22:30:39 15° 269° (W) 22:33:05 145.935
ANTELSAT 31 Aug 22:37:06 22:41:02 35° 97° (E) 22:44:56 437.575/2403.000
UKube-1 31 Aug 22:50:04 22:52:11 13° 60° (ENE) 22:54:17 .
HUMSAT D 31 Aug 22:56:39 23:00:11 27° 265° (W) 23:03:42 437.325/437.525
50 SAT 31 Aug 22:57:02 22:59:51 22° 68° (ENE) 23:02:42 437.505
PRISM 31 Aug 23:00:53 23:03:22 16° 298° (WNW) 23:05:51 437.425
AISAT 31 Aug 23:04:05 23:08:07 35° 69° (ENE) 23:12:11 437.250
TIGRISAT 31 Aug 23:06:29 23:10:45 71° 101° (E) 23:14:59 435.000
QB50P1 31 Aug 23:14:26 23:16:24 13° 90° (E) 23:18:21 145.935-145.965
RS-15 31 Aug 23:14:31 23:23:08 25° 100° (E) 23:32:00 29.354- 29.394
ESTCUBE 1 31 Aug 23:14:37 23:19:05 77° 76° (ENE) 23:23:37 437.505/2401.250
Cosmos 2499 31 Aug 23:15:31 23:22:36 89° 76° (ENE) 23:29:50 435.465 / 435.565
JAS-2 31 Aug 23:18:09 23:22:11 15° 87° (E) 23:26:21 435.910
POPSAT HIP 1 31 Aug 23:24:18 23:26:59 16° 92° (E) 23:29:40 437.405
GONETS M04 31 Aug 23:24:54 23:33:42 69° 267° (W) 23:42:26
PHONESAT 2.4 31 Aug 23:28:04 23:29:11 12° 152° (SSE) 23:30:18 2401.200-2431.200
SPROUT 31 Aug 23:36:26 23:40:22 36° 70° (ENE) 23:44:19 437.525
UNISAT 6 31 Aug 23:36:49 23:40:58 50° 288° (WNW) 23:45:05 437.425
CUBEBUG 1 31 Aug 23:40:14 23:44:39 87° 257° (WSW) 23:49:07 437.445
DANDE 31 Aug 23:41:00 23:43:34 45° 96° (E) 23:46:34 436.750
CUSAT 1 31 Aug 23:41:36 23:44:41 37° 289° (WNW) 23:48:36 437.405
O/OREOS (USA 219) 31 Aug 23:42:03 23:46:12 34° 255° (WSW) 23:50:20 437.305
DUCHIFAT 1 31 Aug 23:45:46 23:49:15 25° 95° (E) 23:52:41 145.980
VELOX 1 31 Aug 23:50:26 23:54:53 83° 255° (WSW) 23:59:23 145.980
DX 1 31 Aug 23:51:51 23:56:12 71° 75° (ENE) 00:00:36 434.975-435.025
AUBIESAT-1 31 Aug 23:53:32 23:57:22 25° 260° (W) 00:01:11 437.475
QB50P2 31 Aug 23:54:58 23:58:55 38° 98° (E) 00:02:50 145.880/145.840
POLYITAN 1 31 Aug 23:57:28 00:01:24 38° 98° (E) 00:05:19 437.675
SO-50 01 Sep 00:01:24 00:05:44 31° 315° (NW) 00:10:02 436.795
NANOSAT C BR1 01 Sep 00:01:36 00:05:34 39° 98° (E) 00:09:29 145.865
M-CUBED/EXP-1 PRIME 01 Sep 00:04:14 00:07:21 17° 263° (W) 00:10:28 437.505
ANTELSAT 01 Sep 00:14:16 00:17:34 22° 294° (WNW) 00:20:50 437.575/2403.000
BUGSAT 1 01 Sep 00:21:34 00:25:02 26° 95° (E) 00:28:26 437.445
UKube-1 01 Sep 00:23:22 00:27:40 68° 257° (WSW) 00:32:01 .
50 SAT 01 Sep 00:30:24 00:33:20 24° 264° (W) 00:36:19 437.505
AISAT 01 Sep 00:41:01 00:44:39 24° 266° (W) 00:48:18 437.250
TIGRISAT 01 Sep 00:45:09 00:46:53 12° 299° (WNW) 00:48:35 435.000
QB50P1 01 Sep 00:48:24 00:52:33 58° 287° (WNW) 00:56:39 145.935-145.965
ESTCUBE 1 01 Sep 00:55:21 00:56:27 11° 272° (W) 00:57:34 437.505/2401.250
ITUPSAT 1 01 Sep 00:56:31 00:58:59 14° 59° (ENE) 01:01:27 437.325
Oscar 19 01 Sep 00:58:45 01:01:33 14° 89° (E) 01:04:18 437.125/150
POPSAT HIP 1 01 Sep 00:58:59 01:03:01 45° 289° (WNW) 01:07:01 437.405
JAS-2 01 Sep 01:00:55 01:07:58 80° 103° (ESE) 01:15:41 435.910
PHONESAT 2.4 01 Sep 01:02:14 01:04:58 32° 168° (SSE) 01:07:44 2401.200-2431.200
Cosmos 2499 01 Sep 01:10:55 01:14:38 15° 282° (WNW) 01:18:24 435.465 / 435.565
SPROUT 01 Sep 01:13:04 01:16:24 22° 266° (W) 01:19:46 437.525
TISAT 1 01 Sep 01:13:33 01:17:48 90° 166° (SSE) 01:22:05 437.305
DUCHIFAT 1 01 Sep 01:21:17 01:24:56 29° 292° (WNW) 01:28:33 145.980
RS-15 01 Sep 01:22:15 01:33:51 89° 123° (ESE) 01:46:08 29.354- 29.394
GONETS M04 01 Sep 01:25:02 01:28:44 13° 288° (WNW) 01:32:28
SWISSCUBE 01 Sep 01:25:03 01:29:05 28° 66° (ENE) 01:33:08 437.505
QB50P2 01 Sep 01:31:21 01:34:29 20° 295° (WNW) 01:37:35 145.880/145.840
DX 1 01 Sep 01:31:29 01:32:53 11° 271° (W) 01:34:18 434.975-435.025
POLYITAN 1 01 Sep 01:33:52 01:36:57 20° 295° (WNW) 01:40:02 437.675
NANOSAT C BR1 01 Sep 01:38:00 01:41:01 20° 295° (WNW) 01:44:02 145.865
BEESAT 01 Sep 01:41:15 01:45:36 36° 68° (ENE) 01:49:56 436.000
BUGSAT 1 01 Sep 01:56:52 02:00:22 27° 292° (WNW) 02:03:49 437.445
ITAMSAT 1 01 Sep 02:24:05 02:25:57 12° 88° (E) 02:27:50 435.822/435.867
ITUPSAT 1 01 Sep 02:31:27 02:36:12 75° 257° (WSW) 02:40:59 437.325
Oscar 19 01 Sep 02:36:12 02:41:26 74° 286° (WNW) 02:46:36 437.125/150
PHONESAT 2.4 01 Sep 02:38:10 02:41:03 42° 184° (S) 02:43:54 2401.200-2431.200
Gurwin Techsat 1B 01 Sep 02:45:32 02:50:50 65° 102° (ESE) 02:56:05 435.225
JAS-2 01 Sep 02:47:10 02:52:23 23° 300° (WNW) 02:57:57 435.910
AO-7 01 Sep 02:49:51 02:54:09 15° 87° (E) 02:58:26 29.400- 29.500
MOZHAYETS 4 01 Sep 02:49:59 02:53:47 27° 67° (ENE) 02:57:35
SWISSCUBE 01 Sep 03:02:30 03:06:46 33° 263° (W) 03:11:05 437.505
Cosmos 2491 01 Sep 03:06:05 03:11:44 18° 58° (ENE) 03:17:21 435.465 / 435.565
BEESAT 01 Sep 03:19:30 03:23:27 26° 265° (W) 03:27:24 436.000
RS-15 01 Sep 03:37:20 03:48:05 38° 331° (NNW) 03:59:19 29.354- 29.394
KKS-1 01 Sep 03:45:01 03:49:30 76° 75° (ENE) 03:54:00 437.445
AO-85 01 Sep 03:59:12 04:04:07 40° 117° (ESE) 04:08:49 145.980
ITAMSAT 1 01 Sep 04:00:53 04:06:06 87° 285° (WNW) 04:11:17 435.822/435.867
STARS 01 Sep 04:07:36 04:11:59 65° 74° (ENE) 04:16:24 437.465
PHONESAT 2.4 01 Sep 04:14:39 04:17:01 21° 200° (SSW) 04:19:21 2401.200-2431.200
Oscar 19 01 Sep 04:18:20 04:19:50 11° 305° (NW) 04:21:19 437.125/150
YUBILEINY 01 Sep 04:22:10 04:27:37 18° 76° (ENE) 04:33:03 435.215
CUBESAT XI-V 01 Sep 04:22:49 04:26:53 32° 68° (ENE) 04:31:00 437.345
Gurwin Techsat 1B 01 Sep 04:26:37 04:30:16 19° 300° (WNW) 04:33:55 435.225
MOZHAYETS 4 01 Sep 04:26:44 04:30:50 32° 264° (W) 04:34:57
AO-7 01 Sep 04:39:55 04:48:16 76° 107° (ESE) 04:56:33 29.400- 29.500
HORYU 2 01 Sep 04:57:41 05:00:49 19° 93° (E) 05:03:55 437.375
Cosmos 2491 01 Sep 05:01:17 05:10:11 79° 81° (E) 05:19:02 435.465 / 435.565
SO-50 01 Sep 05:11:56 05:13:39 12° 29° (NNE) 05:15:22 436.795
Cosmos 2504 01 Sep 05:22:59 05:26:48 14° 77° (ENE) 05:30:30 435.465 / 435.565
KKS-1 01 Sep 05:25:19 05:26:36 11° 271° (W) 05:27:52 437.445
BRITE-PL 01 Sep 05:38:42 05:43:34 28° 93° (E) 05:48:15 437.365/2234.400
AO-85 01 Sep 05:39:55 05:44:40 34° 314° (NW) 05:49:10 145.980
CUTE-I 01 Sep 05:39:55 05:41:11 11° 87° (E) 05:42:27 437.470
ITAMSAT 1 01 Sep 05:42:28 05:44:47 13° 303° (WNW) 05:47:06 435.822/435.867
STARS 01 Sep 05:46:48 05:48:47 13° 270° (W) 05:50:46 437.465
RS-15 01 Sep 05:55:23 06:05:22 28° 5° (N) 06:15:28 29.354- 29.394
LilacSat-2 01 Sep 05:56:46 05:58:13 12° 90° (E) 05:59:39 437.200
CUBESAT XI-V 01 Sep 06:00:18 06:04:15 28° 265° (W) 06:08:15 437.345
STRAND 1 01 Sep 06:04:30 06:08:28 23° 63° (ENE) 06:12:26 437.568
YUBILEINY 01 Sep 06:14:12 06:23:03 86° 97° (E) 06:31:56 435.215
GOMX 1 01 Sep 06:27:33 06:32:25 35° 94° (E) 06:37:00 467.674
HORYU 2 01 Sep 06:33:23 06:37:35 43° 290° (WNW) 06:41:45 437.375
AO-7 01 Sep 06:33:36 06:40:19 28° 307° (NW) 06:47:00 29.400- 29.500
ISS 01 Sep 06:36:04 06:38:41 22° 136° (SE) 06:41:18 145.825
SO-50 01 Sep 06:50:43 06:55:15 51° 51° (NE) 06:59:38 436.795
NOAA 18 01 Sep 06:58:50 07:04:10 51° 100° (E) 07:09:27 137.9125
Cosmos 2491 01 Sep 06:59:34 07:06:00 23° 281° (W) 07:12:27 435.465 / 435.565
NOAA 15 01 Sep 07:01:30 07:06:51 79° 103° (ESE) 07:12:10 137.62
Cubesat XI-IV 01 Sep 07:06:25 07:11:45 69° 102° (ESE) 07:17:03 437.490
Cosmos 2504 01 Sep 07:10:39 07:18:56 77° 95° (E) 07:26:39 435.465 / 435.565
CUTE-I 01 Sep 07:16:39 07:22:00 85° 105° (ESE) 07:27:20 437.470
BRITE-PL 01 Sep 07:16:46 07:22:09 44° 291° (WNW) 07:27:21 437.365/2234.400
HO-68 01 Sep 07:17:00 07:21:07 16° 88° (E) 07:25:11 435.675
LilacSat-2 01 Sep 07:29:09 07:32:50 50° 287° (WNW) 07:36:28 437.200
AIST 1 01 Sep 07:36:22 07:37:43 11° 83° (E) 07:39:05
STRAND 1 01 Sep 07:42:26 07:47:20 47° 261° (W) 07:52:17 437.568
DOVE 4 01 Sep 07:46:31 07:51:32 88° 103° (ESE) 07:56:12 437.250
CINEMA 3 01 Sep 07:51:06 07:54:49 26° 94° (E) 07:58:24 145.822/145.860
BEESAT 2 01 Sep 08:00:26 08:02:17 13° 110° (ESE) 08:04:09 435.950
GOMX 1 01 Sep 08:05:40 08:10:24 32° 294° (WNW) 08:14:53 467.674
BEESAT 3 01 Sep 08:06:25 08:09:48 29° 116° (ESE) 08:13:14 437.485
RS-15 01 Sep 08:10:12 08:22:01 47° 38° (NE) 08:33:43 29.354- 29.394
ISS 01 Sep 08:11:43 08:14:56 54° 333° (NNW) 08:18:11 145.825
SEEDS 01 Sep 08:14:27 08:17:56 24° 94° (E) 08:21:24 437.485
YUBILEINY 01 Sep 08:14:32 08:21:04 22° 299° (WNW) 08:27:37 435.215
PRISM 01 Sep 08:14:52 08:18:46 44° 71° (ENE) 08:22:44 437.425
CUSAT 1 01 Sep 08:28:43 08:34:16 25° 68° (ENE) 08:40:27 437.405
AAUSAT CUBESAT 2 01 Sep 08:31:08 08:34:17 20° 93° (E) 08:37:25 437.432
SO-50 01 Sep 08:32:01 08:35:20 20° 249° (WSW) 08:38:35 436.795
NOAA 18 01 Sep 08:40:09 08:44:30 25° 298° (WNW) 08:48:49 137.9125
NOAA 15 01 Sep 08:42:49 08:45:58 16° 302° (WNW) 08:49:08 137.62
COMPASS 1 01 Sep 08:43:48 08:47:40 35° 97° (E) 08:51:31 437.405
CANX-2 01 Sep 08:45:55 08:50:11 89° 85° (E) 08:54:27 2200.000
Cubesat XI-IV 01 Sep 08:47:46 08:51:16 18° 300° (WNW) 08:54:46 437.490
CUTE 1.7 + AOD 2 01 Sep 08:50:59 08:55:15 88° 94° (E) 08:59:31 437.475
UWE-3 01 Sep 08:58:20 09:01:45 24° 94° (E) 09:05:09 435.000/436.395/437.385
CUTE-I 01 Sep 08:58:27 09:01:20 15° 302° (WNW) 09:04:13 437.470
UNISAT 6 01 Sep 09:01:31 09:04:33 18° 64° (ENE) 09:07:32 437.425
ZACube-1 01 Sep 09:01:46 09:04:32 17° 92° (E) 09:07:16 437.345
HO-68 01 Sep 09:02:35 09:09:48 86° 104° (ESE) 09:16:58 435.675
Cosmos 2504 01 Sep 09:06:51 09:13:03 23° 295° (WNW) 09:19:00 435.465 / 435.565
AIST 1 01 Sep 09:10:20 09:14:41 67° 280° (W) 09:19:05
CUBEBUG 2 01 Sep 09:11:06 09:15:13 51° 100° (E) 09:19:14 437.445
DOVE 4 01 Sep 09:26:17 09:28:23 13° 302° (WNW) 09:30:27 437.250
DELFI C3 01 Sep 09:27:35 09:29:36 13° 91° (E) 09:31:35 145.870
CINEMA 3 01 Sep 09:28:05 09:31:58 30° 292° (WNW) 09:35:43 145.822/145.860
BEESAT 2 01 Sep 09:35:41 09:39:36 61° 307° (NW) 09:43:34 435.950
ANTELSAT 01 Sep 09:36:52 09:41:04 38° 70° (ENE) 09:45:12 437.575/2403.000
BEESAT 3 01 Sep 09:44:00 09:47:26 29° 314° (NW) 09:50:55 437.485
ISS 01 Sep 09:49:17 09:51:55 22° 353° (N) 09:54:33 145.825
SEEDS 01 Sep 09:49:56 09:53:38 30° 291° (WNW) 09:57:21 437.485
PRISM 01 Sep 09:51:44 09:54:18 16° 268° (W) 09:56:55 437.425
Oscar 11 01 Sep 09:57:50 10:02:10 72° 102° (ESE) 10:06:28 145.826/435.025
TIGRISAT 01 Sep 10:05:54 10:10:26 73° 75° (ENE) 10:14:54 435.000
AAUSAT CUBESAT 2 01 Sep 10:06:02 10:09:51 36° 290° (WNW) 10:13:40 437.432
Cosmos 2499 01 Sep 10:06:07 10:08:53 12° 76° (ENE) 10:11:35 435.465 / 435.565
QB50P1 01 Sep 10:08:38 10:10:36 13° 61° (ENE) 10:12:36 145.935-145.965
CUSAT 1 01 Sep 10:09:50 10:16:42 73° 262° (W) 10:24:35 437.405
FUNcube-1 01 Sep 10:12:27 10:16:36 84° 285° (WNW) 10:20:44 145.935
DANDE 01 Sep 10:13:04 10:18:51 57° 77° (ENE) 10:26:12 436.750
POPSAT HIP 1 01 Sep 10:18:25 10:21:03 16° 63° (ENE) 10:23:41 437.405
COMPASS 1 01 Sep 10:19:48 10:23:01 22° 294° (WNW) 10:26:13 437.405
RS-15 01 Sep 10:23:06 10:35:18 68° 244° (WSW) 10:47:16 29.354- 29.394
GONETS M04 01 Sep 10:32:21 10:39:34 30° 82° (E) 10:46:49
UWE-3 01 Sep 10:34:37 10:38:14 29° 291° (WNW) 10:41:48 435.000/436.395/437.385
UNISAT 6 01 Sep 10:36:27 10:40:54 51° 260° (W) 10:45:16 437.425
ZACube-1 01 Sep 10:37:07 10:41:02 41° 289° (WNW) 10:44:55 437.345
HUMSAT D 01 Sep 10:37:54 10:41:45 39° 98° (E) 10:45:38 437.325/437.525
DUCHIFAT 1 01 Sep 10:39:00 10:42:21 23° 66° (ENE) 10:45:43 145.980
QB50P2 01 Sep 10:48:42 10:52:34 34° 69° (ENE) 10:56:26 145.880/145.840
CUBEBUG 2 01 Sep 10:48:57 10:51:25 15° 297° (WNW) 10:53:51 437.445
POLYITAN 1 01 Sep 10:51:10 10:55:04 35° 69° (ENE) 10:58:56 437.675
HO-68 01 Sep 10:51:36 10:56:40 21° 306° (NW) 11:01:43 435.675
AIST 2 01 Sep 10:53:24 10:57:10 36° 117° (ESE) 11:00:59 435.215
NANOSAT C BR1 01 Sep 10:54:49 10:58:41 35° 70° (ENE) 11:02:35 145.865
DELFI C3 01 Sep 11:00:50 11:04:44 51° 287° (WNW) 11:08:38 145.870
PCSat 01 Sep 11:02:13 11:07:37 75° 118° (ESE) 11:13:03 145.827
ESTCUBE 1 01 Sep 11:07:06 11:09:41 15° 90° (E) 11:12:16 437.505/2401.250
BUGSAT 1 01 Sep 11:12:33 11:15:55 23° 66° (ENE) 11:19:17 437.445
ANTELSAT 01 Sep 11:14:21 11:17:53 22° 266° (W) 11:21:23 437.575/2403.000
JAS-2 01 Sep 11:15:59 11:20:48 36° 65° (ENE) 11:26:02 435.910
BEESAT 2 01 Sep 11:17:19 11:18:15 11° 327° (NNW) 11:19:11 435.950
